User: anonymous   Login
Location: Stuttgart
(48.8069°N, 9.1544°E)
Time: 03:56:45
(UTC+02:00)
Language:

ISS - Orbit

View from above orbital plane
View from above orbital plane
View from above satellite
View from above satellite

Ground track
Ground track

The orbit data is extracted from the following two-line orbital elements,

1 25544U 98067A   21166.88499455  .00001201  00000-0  29969-4 0  9991
2 25544  51.6441 349.1648 0003517  96.0006  44.9670 15.48988518288392
Epoch (UTC): 15 June 2021 21:14:23
Eccentricity: 0.0003517
inclination: 51.6441°
perigee height: 417 km
apogee height: 422 km
right ascension of ascending node: 349.1648°
argument of perigee: 96.0006°
revolutions per day: 15.48988518
mean anomaly at epoch: 44.9670°
orbit number at epoch: 28839

The dashed part of the orbit path shows where the satellite is in the earth's shadow,  

DLR